SV2JU-2 Weather Reports


time (UTC)temp
F
wind
direction
speed
knots
gust
knots
rain 1hr
in
rain 24hr
in
rain mn
in
humidity
%
barometer
mb
20260508010213 63 0 0.0 0.0 0.00 0.00 0.00 50 1016.0
20260508004942 63 0 0.0 0.0 0.00 0.00 0.00 50 1016.0
20260508003713 63 0 0.0 0.0 0.00 0.00 0.00 50 1016.0
20260508002442 63 0 0.0 0.0 0.00 0.00 0.00 50 1016.0
20260508001212 64 0 0.0 0.0 0.00 0.00 0.00 50 1016.0
20260507235941 64 0 0.0 0.0 0.00 0.00 0.00 50 1017.0
20260507234712 64 0 0.0 0.0 0.00 0.00 0.00 50 1017.0
20260507233441 64 0 0.0 0.0 0.00 0.00 0.00 50 1017.0
20260507232212 64 0 0.0 0.0 0.00 0.00 0.00 50 1017.0
20260507230941 64 0 0.0 0.0 0.00 0.00 0.00 50 1017.0
20260507225712 64 0 0.0 0.0 0.00 0.00 0.00 50 1017.0
20260507224441 64 0 0.0 0.0 0.00 0.00 0.00 49 1017.0
20260507223212 65 0 0.0 0.0 0.00 0.00 0.00 49 1017.0
20260507221941 65 0 0.0 0.0 0.00 0.00 0.00 48 1017.0
20260507220712 65 0 0.0 0.0 0.00 0.00 0.00 48 1017.0
20260507215441 65 0 0.0 0.0 0.00 0.00 0.00 49 1017.0
20260507212941 65 0 0.0 0.0 0.00 0.00 0.00 49 1017.0
20260507211711 65 0 0.0 0.0 0.00 0.00 0.00 49 1017.0
20260507210441 65 0 0.0 0.0 0.00 0.00 0.00 49 1017.0
20260507203940 65 0 0.0 0.0 0.00 0.00 0.00 47 1017.0
20260507201441 65 0 0.0 0.0 0.00 0.00 0.00 46 1017.0
20260507200212 65 0 0.0 0.0 0.00 0.00 0.00 45 1017.0
20260507194940 65 0 0.0 0.0 0.00 0.00 0.00 45 1017.0
20260507193711 65 0 0.0 0.0 0.00 0.00 0.00 45 1017.0
20260507192440 66 0 0.0 0.0 0.00 0.00 0.00 45 1017.0
20260507191211 66 0 0.0 0.0 0.00 0.00 0.00 45 1017.0
20260507185940 66 0 0.0 0.0 0.00 0.00 0.00 44 1017.0
20260507184711 66 0 0.0 0.0 0.00 0.00 0.00 43 1017.0
20260507183440 66 0 0.0 0.0 0.00 0.00 0.00 42 1017.0
20260507182211 66 0 0.0 0.0 0.00 0.00 0.00 42 1017.0
20260507180940 67 0 0.0 0.0 0.00 0.00 0.00 41 1017.0
20260507175711 67 0 0.0 0.0 0.00 0.00 0.00 40 1017.0
20260507174440 67 247 0.9 3.5 0.00 0.00 0.00 40 1017.0
20260507173210 67 0 0.0 0.0 0.00 0.00 0.00 39 1016.0
20260507171939 67 0 0.0 0.0 0.00 0.00 0.00 37 1016.0
20260507170710 67 0 0.0 0.0 0.00 0.00 0.00 39 1017.0
20260507165440 68 0 0.0 0.0 0.00 0.00 0.00 39 1017.0
20260507164210 68 0 0.0 0.0 0.00 0.00 0.00 38 1017.0
20260507162939 68 0 0.0 0.0 0.00 0.00 0.00 39 1017.0
20260507161710 68 181 0.0 1.7 0.00 0.00 0.00 39 1017.0
20260507160439 69 161 1.7 2.6 0.00 0.00 0.00 38 1017.0
20260507153939 69 0 0.0 0.0 0.00 0.00 0.00 38 1017.0
20260507152710 69 0 0.0 0.0 0.00 0.00 0.00 38 1017.0
20260507151439 69 0 0.0 0.0 0.00 0.00 0.00 38 1017.0
20260507150210 69 266 0.0 1.7 0.00 0.00 0.00 37 1017.0
20260507133209 70 266 0.0 1.7 0.00 0.00 0.00 42 1017.0
20260507131935 69 0 0.0 0.0 0.00 0.00 0.00 43 1017.0
20260507130709 69 164 0.0 1.7 0.00 0.00 0.00 44 1017.0
20260507125435 69 0 0.0 0.0 0.00 0.00 0.00 43 1017.0
20260507124206 69 0 0.0 0.0 0.00 0.00 0.00 43 1017.0
20260507122936 69 5 1.7 2.6 0.00 0.00 0.00 48 1018.0
20260507121706 68 5 1.7 2.6 0.00 0.00 0.00 47 1018.0
20260507120435 68 5 1.7 2.6 0.00 0.00 0.00 47 1018.0
20260507115206 67 18 1.7 2.6 0.00 0.00 0.00 46 1018.0
20260507113935 68 0 0.0 0.0 0.00 0.00 0.00 47 1018.0
20260507112708 68 0 0.0 0.0 0.00 0.00 0.00 47 1019.0
20260507111435 68 0 0.0 0.0 0.00 0.00 0.00 46 1019.0
20260507110206 68 0 0.0 0.0 0.00 0.00 0.00 45 1019.0
20260507104935 69 0 0.0 0.0 0.00 0.00 0.00 40 1019.0
20260507103708 69 0 0.0 0.0 0.00 0.00 0.00 33 1019.0
20260507102435 69 0 0.0 0.0 0.00 0.00 0.00 29 1019.0
20260507101206 70 278 0.0 1.7 0.00 0.00 0.00 29 1019.0
20260507095935 70 265 0.9 3.5 0.00 0.00 0.00 29 1019.0
20260507094706 70 264 1.7 4.3 0.00 0.00 0.00 29 1018.0
20260507093435 70 265 0.0 2.6 0.00 0.00 0.00 28 1018.0
20260507092206 70 0 0.0 0.0 0.00 0.00 0.00 28 1018.0
20260507090935 70 339 0.0 2.6 0.00 0.00 0.00 29 1018.0
20260507085706 70 256 0.0 2.6 0.00 0.00 0.00 30 1018.0
20260507084435 70 278 0.0 2.6 0.00 0.00 0.00 30 1018.0
20260507083206 70 270 0.0 1.7 0.00 0.00 0.00 31 1017.0
20260507081935 70 258 0.0 2.6 0.00 0.00 0.00 31 1017.0
20260507080706 70 242 0.0 2.6 0.00 0.00 0.00 30 1017.0
20260507075435 71 252 0.9 3.5 0.00 0.00 0.00 30 1017.0
20260507074206 71 0 0.0 0.0 0.00 0.00 0.00 30 1017.0
20260507072935 71 257 0.0 1.7 0.00 0.00 0.00 29 1017.0
20260507071708 72 0 0.0 0.0 0.00 0.00 0.00 29 1017.0
20260507070435 71 0 0.0 0.0 0.00 0.00 0.00 29 1017.0
20260507065205 71 265 0.0 1.7 0.00 0.00 0.00 29 1017.0
20260507063935 72 259 0.0 2.6 0.00 0.00 0.00 28 1017.0
20260507062705 73 264 0.0 1.7 0.00 0.00 0.00 26 1017.0
20260507061435 75 252 0.0 1.7 0.00 0.00 0.00 27 1017.0
20260507060206 74 0 0.0 0.0 0.00 0.00 0.00 27 1016.0
20260507054935 74 0 0.0 0.0 0.00 0.00 0.00 29 1017.0
20260507053705 72 250 0.0 1.7 0.00 0.00 0.00 30 1016.0
20260507052435 72 0 0.0 0.0 0.00 0.00 0.00 30 1016.0
20260507051205 71 0 0.0 0.0 0.00 0.00 0.00 31 1016.0
20260507045935 69 356 0.0 1.7 0.00 0.00 0.00 34 1016.0
20260507044705 68 0 0.0 0.0 0.00 0.00 0.00 39 1016.0
20260507043435 66 0 0.0 0.0 0.00 0.00 0.00 41 1016.0
20260507042205 64 0 0.0 0.0 0.00 0.00 0.00 44 1016.0
20260507040934 62 0 0.0 0.0 0.00 0.00 0.00 46 1016.0
20260507035705 62 0 0.0 0.0 0.00 0.00 0.00 46 1016.0
20260507034434 62 0 0.0 0.0 0.00 0.00 0.00 46 1016.0
20260507033205 62 0 0.0 0.0 0.00 0.00 0.00 47 1016.0
20260507031934 62 0 0.0 0.0 0.00 0.00 0.00 48 1016.0
20260507030706 62 0 0.0 0.0 0.00 0.00 0.00 49 1016.0
20260507025434 62 0 0.0 0.0 0.00 0.00 0.00 49 1016.0
20260507024205 62 0 0.0 0.0 0.00 0.00 0.00 48 1016.0
20260507022934 62 0 0.0 0.0 0.00 0.00 0.00 49 1015.0
20260507021705 62 6 0.0 1.7 0.00 0.00 0.00 50 1016.0
20260507020434 62 0 0.0 0.0 0.00 0.00 0.00 50 1015.0
20260507015205 62 9 0.0 1.7 0.00 0.00 0.00 50 1015.0
20260507013934 62 12 0.9 2.6 0.00 0.00 0.00 50 1015.0